Regional Weather Roundup
Issued by NWS Portland, ME

Current Version | Previous Version | Text Only | Print | Product List | Glossary Off
Versions: 1 2 3 4 5 6 7 8 9 10 11 12 13 14 15 16 17 18 19 20 21 22 23 24 25 26 27 28 29 30 31 32 33 34 35 36 37 38 39 40 41 42 43 44 45 46 47 48 49 50
690 ASUS41 KGYX 282005 RWRGYX WEATHER ROUNDUP FOR MAINE AND NEW HAMPSHIRE NATIONAL WEATHER SERVICE GRAY ME 400 PM EDT TUE MAR 28 2017 MEZ002-005-006-010-012-015-018-020-021-024-026-027-029-282100- MAINE CITY SKY/WX TMP DP RH WIND PRES REMARKS PORTLAND FOG 35 34 96 E3 30.01S VSB 3/4 SANFORD CLOUDY 37 34 89 NE6 29.99F BAR HARBOR CLOUDY 36 33 89 E7 30.01F WISCASSET CLOUDY 38 34 85 CALM 30.02S ROCKLAND CLOUDY 37 33 85 SE6 30.01F FRYEBURG MIX PCPN 36 34 92 E3 29.98S LEWISTONAUBURN CLOUDY 37 33 85 S6 29.99F AUGUSTA CLOUDY 35 32 88 S3 29.99F WATERVILLE CLOUDY 36 33 89 CALM 29.96F BANGOR CLOUDY 34 33 96 S5 30.00F GREENVILLE N/A 30 30 100 VRB3 29.89F MILLINOCKET CLOUDY 33 32 96 VRB6 29.99F HOULTON MIX PCPN 31 29 92 SE7 29.98F PRESQUE ISLE MIX PCPN 32 29 88 SE9 29.99F FRENCHVILLE LGT SNOW 29 26 89 SE8 29.96R FOG CARIBOU LGT SNOW 32 28 85 S8 29.97F FOG $$ NHZ002-005-008-009-011-012-014-282100- NEW HAMPSHIRE CITY SKY/WX TMP DP RH WIND PRES REMARKS PORTSMOUTH CLOUDY 38 35 88 SE5 29.99S ROCHESTER CLOUDY 38 33 82 CALM 29.98S NASHUA LGT RAIN 40 38 93 E3 29.99F FOG MANCHESTER LGT RAIN 39 34 82 E5 29.98S CONCORD LGT RAIN 40 35 83 S5 29.97F LACONIA LGT RAIN 38 34 85 E3 29.97F PLYMOUTH LGT RAIN 37 35 90 CALM 29.96F BERLIN CLOUDY 43 33 68 S3 29.89S WHITEFIELD CLOUDY 47 37 68 NW5 29.88F JAFFREY LGT RAIN 39 37 92 CALM 29.95S FOG KEENE LGT RAIN 42 41 96 CALM 29.95F FOG LEBANON LGT RAIN 42 38 85 NE7 29.92F MT WASHINGTON FOG 36 36 100 W33 N/A VSB 0 $$ VTZ005-007-008-282100- VERMONT CITY SKY/WX TMP DP RH WIND PRES REMARKS ST JOHNSBURY N/A 44 38 79 MISG 29.89S MONTPELIER CLOUDY 44 40 85 S8 29.92S BURLINGTON LGT RAIN 40 37 89 N12 29.93R $$ MAZ007-012-024-CTZ003-RIZ002-NYZ038-NYZ072-282100- SOUTHERN NEW ENGLAND AND NY CITY SKY/WX TMP DP RH WIND PRES REMARKS BOSTON LGT RAIN 39 38 96 E8 30.00S FOG WORCESTER LGT RAIN 37 36 96 NE5 29.94F VSB<1/4 NANTUCKET CLOUDY 43 37 79 E6 29.98S PROVIDENCE LGT RAIN 44 40 85 E5 29.96F FOG HARTFORD LGT RAIN 43 42 97 N5 29.94F FOG ALBANY LGT RAIN 48 44 86 S8 29.91S FOG NEW YORK CITY CLOUDY 42 39 89 NE18 29.87F FOG $$ ANZ081-ANZ082-ANZ150-NHZ014-MEZ023>029-282100- COASTAL MARINE OBSERVATIONS STATION/POSITION TIME TEMP WIND PRES WAVE AIR SEA DIR/SP/G HT/PER (UTC) (F) (DEG/KT/KT) (MB) (FT/S) MOUNT DESERT ROC 2000 36 1016.0F MATINICUS ROCK 1900 35 60/ 12/ 13 1015.6F ISLE OF SHOALS 1900 36 40/ 8/ 9 1015.8F $$ .............KEY.............. WCI - WIND CHILL TC - TEMPERATURE IN CELSIUS VSB - VISIBILITY IN MILES HX - HEAT INDEX FAIR- INDICATES FEW OR NO CLOUDS BELOW 12,000 FT, WITH NO SIGNIFICANT WEATHER AND/OR OBSTRUCTIONS TO VISIBILITY.

USA.gov is the U.S. government's official web portal to all federal, state and local government web resources and services.